�N����,����,�~����,�C��,���x,�C��,����,���ϕ���,�ő�u�ԕ���,�ő厞����,���˗�,�I�_���x,�n�����x,�ő啗���N��,DTYPE
"23/10/16","00:10",0.0,12.9,93.0,1004.5,304.1,1.8,2.5,321.2,0.00,11.8,18.6,"00:05:52",1
"23/10/16","00:20",0.0,12.9,93.3,1004.8,298.6,1.6,2.0,316.4,0.00,11.9,18.6,"00:11:44",1
"23/10/16","00:30",0.0,13.1,93.6,1004.8,318.7,1.6,2.0,320.3,0.00,12.1,18.3,"00:24:26",1
"23/10/16","00:40",0.0,13.1,93.7,1004.8,311.4,1.6,2.4,324.1,0.00,12.1,18.3,"00:31:30",1
"23/10/16","00:50",0.0,12.9,94.0,1004.5,299.7,1.1,1.9,324.4,0.00,12.0,18.4,"00:40:08",1
"23/10/16","01:00",0.0,12.6,94.2,1005.0,288.8,1.1,1.9,323.1,0.00,11.7,18.3,"00:57:22",1
"23/10/16","01:10",0.0,12.6,94.4,1005.5,304.4,1.5,2.5,319.3,0.00,11.8,18.3,"01:08:00",1
"23/10/16","01:20",0.0,12.4,94.6,1005.5,293.2,1.6,2.0,307.2,0.00,11.6,18.2,"01:16:16",1
"23/10/16","01:30",0.0,12.6,94.8,1005.2,310.5,1.6,2.6,316.3,0.00,11.8,18.3,"01:21:44",1
"23/10/16","01:40",0.0,12.7,94.9,1005.2,291.6,1.3,1.9,318.9,0.00,11.9,18.2,"01:38:58",1
"23/10/16","01:50",0.0,12.8,95.1,1005.2,317.7,1.7,2.0,313.7,0.00,12.1,18.1,"01:49:30",1
"23/10/16","02:00",0.0,12.8,95.3,1005.7,313.5,1.5,2.1,337.9,0.00,12.1,18.3,"01:56:54",1
"23/10/16","02:10",0.0,12.8,95.3,1005.2,281.1,1.2,1.4,293.0,0.00,12.1,18.0,"02:01:44",1
"23/10/16","02:20",0.0,12.9,95.5,1005.7,314.7,1.8,2.5,323.6,0.00,12.2,18.1,"02:16:46",1
"23/10/16","02:30",0.0,12.8,95.5,1005.5,293.1,1.5,1.9,318.5,0.00,12.1,18.1,"02:20:44",1
"23/10/16","02:40",0.0,12.8,95.7,1005.2,294.7,1.2,2.1,304.6,0.00,12.2,18.0,"02:33:44",1
"23/10/16","02:50",0.0,12.7,95.8,1005.5,299.4,1.5,2.0,312.4,0.00,12.1,17.9,"02:45:24",1
"23/10/16","03:00",0.0,12.6,95.9,1006.0,295.0,1.2,1.6,298.6,0.00,12.0,17.9,"02:56:18",1
"23/10/16","03:10",0.0,12.8,96.0,1005.7,292.8,1.2,2.6,323.5,0.00,12.2,18.0,"03:07:14",1
"23/10/16","03:20",0.0,12.8,96.2,1005.5,317.0,1.7,2.5,319.6,0.00,12.3,17.8,"03:13:12",1
"23/10/16","03:30",0.0,12.8,96.2,1005.5,314.3,1.8,2.9,318.0,0.00,12.3,17.9,"03:26:46",1
"23/10/16","03:40",0.0,12.9,96.4,1006.0,303.4,1.5,2.1,331.1,0.00,12.4,17.9,"03:33:22",1
"23/10/16","03:50",0.0,12.9,96.4,1005.7,293.9,1.3,1.8,310.5,0.00,12.4,17.7,"03:46:30",1
"23/10/16","04:00",0.0,12.8,96.5,1006.2,300.7,1.5,1.9,318.5,0.00,12.3,17.8,"03:50:30",1
"23/10/16","04:10",0.0,12.7,96.6,1006.0,288.6,1.3,2.2,259.8,0.00,12.2,17.7,"04:02:06",1
"23/10/16","04:20",0.0,12.6,96.7,1006.0,310.7,1.5,2.2,316.6,0.00,12.1,17.7,"04:12:44",1
"23/10/16","04:30",0.0,12.6,96.8,1006.2,313.7,1.7,2.0,315.7,0.00,12.1,17.7,"04:24:00",1
"23/10/16","04:40",0.0,12.5,96.9,1006.4,291.1,1.2,1.9,317.9,0.00,12.1,17.6,"04:30:30",1
"23/10/16","04:50",0.0,12.7,97.0,1006.4,309.1,1.5,2.0,308.3,0.00,12.3,17.7,"04:46:36",1
"23/10/16","05:00",0.0,12.8,97.1,1006.7,284.7,1.1,1.4,272.4,0.00,12.4,17.6,"04:52:42",1
"23/10/16","05:10",0.0,13.0,97.1,1006.7,296.6,1.2,1.6,315.8,0.00,12.6,17.5,"05:03:12",1
"23/10/16","05:20",0.0,13.2,97.1,1006.4,305.8,1.3,2.0,322.7,0.00,12.8,17.4,"05:15:44",1
"23/10/16","05:30",0.0,13.3,97.1,1006.7,281.7,0.7,0.9,292.9,0.00,12.9,17.6,"05:20:08",1
"23/10/16","05:40",0.0,13.4,97.2,1006.7,320.1,0.7,1.6,317.1,0.00,13.0,17.7,"05:37:52",1
"23/10/16","05:50",0.0,13.4,97.2,1006.9,294.0,1.0,1.4,312.1,0.00,13.0,17.6,"05:44:40",1
"23/10/16","06:00",0.0,13.6,97.2,1007.4,286.6,0.7,1.1,270.7,0.00,13.2,17.6,"05:50:24",1
"23/10/16","06:10",0.0,13.7,97.2,1007.4,297.6,0.5,1.3,306.5,0.00,13.3,17.6,"06:09:52",1
"23/10/16","06:20",0.0,13.9,97.3,1006.9,304.5,1.2,1.8,314.1,0.00,13.5,17.3,"06:19:28",1
"23/10/16","06:30",0.0,13.9,97.3,1007.4,304.1,1.3,1.7,319.3,0.00,13.5,17.5,"06:21:04",1
"23/10/16","06:40",0.0,14.0,97.3,1007.4,312.6,1.0,1.4,324.4,0.00,13.6,17.7,"06:39:44",1
"23/10/16","06:50",0.0,14.1,97.4,1007.4,306.4,1.2,1.9,339.6,0.00,13.7,17.5,"06:40:48",1
"23/10/16","07:00",0.0,14.3,97.4,1007.6,298.2,1.1,1.4,311.1,0.00,13.9,17.4,"06:52:16",1
"23/10/16","07:10",0.0,14.3,97.4,1007.6,299.0,1.2,1.8,328.2,0.00,13.9,17.5,"07:00:56",1
"23/10/16","07:20",0.0,14.6,97.4,1007.8,334.7,1.3,2.2,321.1,0.01,14.2,17.5,"07:18:58",1
"23/10/16","07:30",0.0,14.8,97.4,1007.4,319.1,1.6,2.4,318.7,0.01,14.4,17.8,"07:28:58",1
"23/10/16","07:40",0.0,15.0,97.4,1008.1,312.9,1.3,2.0,338.7,0.01,14.6,17.6,"07:33:48",1
"23/10/16","07:50",0.0,15.2,97.4,1007.8,306.4,1.3,1.9,321.8,0.02,14.8,17.6,"07:49:08",1
"23/10/16","08:00",0.0,15.5,97.4,1007.6,315.4,1.1,1.6,308.7,0.03,15.1,17.5,"07:54:16",1
"23/10/16","08:10",0.0,15.9,97.4,1007.8,308.4,1.2,1.8,312.0,0.06,15.5,17.7,"08:03:28",1
"23/10/16","08:20",0.0,16.5,97.3,1007.8,297.0,0.8,1.4,315.7,0.08,16.1,17.6,"08:14:08",1
"23/10/16","08:30",0.0,16.7,96.5,1007.8,246.5,1.3,3.4,237.3,0.22,16.2,17.6,"08:29:36",1
"23/10/16","08:40",0.0,16.4,95.6,1008.1,237.5,2.1,3.2,234.8,0.20,15.7,17.5,"08:33:36",1
"23/10/16","08:50",0.0,17.0,95.5,1008.3,260.2,1.1,2.4,229.5,0.14,16.3,17.7,"08:40:16",1
"23/10/16","09:00",0.0,18.3,94.9,1008.3,177.2,0.6,1.4,137.0,0.29,17.5,17.8,"08:52:56",1
"23/10/16","09:10",0.0,18.6,93.4,1008.1,152.2,0.8,2.6,96.0,0.28,17.6,17.6,"09:07:12",1
"23/10/16","09:20",0.0,19.3,90.8,1008.3,166.0,0.7,1.7,264.2,0.29,17.8,17.7,"09:18:48",1
"23/10/16","09:30",0.0,20.1,86.9,1007.8,139.0,0.6,1.2,213.0,0.30,17.9,17.7,"09:24:08",1
"23/10/16","09:40",0.0,20.9,80.2,1007.8,144.3,0.8,1.9,69.0,0.33,17.4,18.0,"09:38:56",1
"23/10/16","09:50",0.0,21.6,75.4,1007.6,129.5,0.7,2.1,122.7,0.35,17.1,17.8,"09:46:56",1
"23/10/16","10:00",0.0,21.9,72.8,1007.4,128.2,1.1,3.2,100.3,0.36,16.8,18.1,"09:56:16",1
"23/10/16","10:10",0.0,22.2,70.8,1006.9,142.2,1.1,2.6,120.5,0.37,16.7,17.8,"10:06:16",1
"23/10/16","10:20",0.0,22.6,69.8,1006.9,161.3,1.1,3.2,96.4,0.37,16.8,18.2,"10:10:40",1
"23/10/16","10:30",0.0,22.8,68.0,1006.4,155.0,1.3,3.7,224.7,0.39,16.6,18.2,"10:20:08",1
"23/10/16","10:40",0.0,23.1,65.4,1006.0,189.0,1.3,3.1,221.0,0.41,16.3,18.3,"10:35:20",1
"23/10/16","10:50",0.0,22.6,65.7,1006.2,208.6,1.8,3.9,227.3,0.34,15.9,18.2,"10:44:40",1
"23/10/16","11:00",0.0,23.5,61.3,1006.0,356.2,1.0,3.1,31.5,0.43,15.7,18.5,"10:57:28",1
"23/10/16","11:10",0.0,23.8,58.8,1005.2,241.5,1.1,2.5,117.9,0.45,15.3,18.7,"11:07:52",1
"23/10/16","11:20",0.0,24.4,58.6,1005.5,204.1,0.8,2.4,124.6,0.46,15.8,18.5,"11:13:44",1
"23/10/16","11:30",0.0,24.5,56.1,1004.5,270.0,1.5,5.4,240.7,0.47,15.2,18.7,"11:21:28",1
"23/10/16","11:40",0.0,24.8,54.4,1004.8,248.5,1.3,3.6,238.5,0.48,15.0,18.9,"11:36:32",1
"23/10/16","11:50",0.0,24.7,51.9,1004.5,279.0,1.8,3.9,236.5,0.49,14.2,18.8,"11:42:08",1
"23/10/16","12:00",0.0,25.1,52.2,1004.5,285.8,1.3,4.8,341.7,0.47,14.7,19.1,"11:56:00",1
"23/10/16","12:10",0.0,24.5,52.0,1004.8,237.7,2.3,4.8,218.0,0.46,14.0,19.0,"12:04:24",1
"23/10/16","12:20",0.0,24.7,52.8,1004.1,252.6,2.1,5.4,222.0,0.45,14.5,19.3,"12:16:08",1
"23/10/16","12:30",0.0,24.9,53.4,1003.8,231.2,2.5,5.1,243.1,0.46,14.8,19.2,"12:28:24",1
"23/10/16","12:40",0.0,25.3,52.5,1004.1,261.8,1.5,3.3,207.8,0.45,14.9,19.3,"12:34:08",1
"23/10/16","12:50",0.0,25.5,51.0,1004.1,286.4,1.2,3.6,242.9,0.42,14.7,19.3,"12:40:16",1
"23/10/16","13:00",0.0,24.9,51.7,1004.1,234.4,2.3,5.8,225.3,0.41,14.3,19.6,"12:51:52",1
"23/10/16","13:10",0.0,24.0,55.0,1004.3,229.5,2.5,4.7,219.7,0.20,14.5,19.6,"13:05:44",1
"23/10/16","13:20",0.0,23.4,53.7,1004.1,256.6,1.7,4.0,241.7,0.06,13.5,19.4,"13:10:24",1
"23/10/16","13:30",0.0,23.8,53.8,1004.1,276.4,1.8,5.0,231.8,0.21,13.9,19.6,"13:25:44",1
"23/10/16","13:40",0.0,25.0,49.8,1003.6,276.1,1.7,3.6,237.0,0.36,13.8,19.6,"13:33:04",1
"23/10/16","13:50",0.0,25.3,50.0,1003.6,288.3,1.6,3.9,345.6,0.34,14.2,19.9,"13:44:16",1
"23/10/16","14:00",0.0,25.4,50.1,1003.4,299.5,1.3,3.2,340.1,0.33,14.3,19.8,"13:57:12",1
"23/10/16","14:10",0.0,25.6,47.6,1003.1,307.2,1.2,3.3,350.7,0.31,13.7,19.7,"14:05:44",1
"23/10/16","14:20",0.0,25.8,48.1,1003.4,252.3,1.2,2.7,17.8,0.29,14.0,19.9,"14:10:40",1
"23/10/16","14:30",0.0,25.9,46.0,1003.6,302.5,1.5,3.2,240.3,0.28,13.4,19.9,"14:26:08",1
"23/10/16","14:40",0.0,25.4,45.6,1003.4,231.3,1.6,4.3,232.1,0.24,12.9,20.0,"14:38:48",1
"23/10/16","14:50",0.0,25.5,47.5,1003.4,254.5,1.3,4.0,221.6,0.19,13.6,19.9,"14:41:20",1
"23/10/16","15:00",0.0,25.1,45.5,1003.1,243.5,2.2,4.8,234.3,0.20,12.6,20.2,"14:53:44",1
"23/10/16","15:10",0.0,25.6,46.3,1003.1,271.5,1.5,4.0,239.9,0.18,13.3,20.2,"15:01:44",1
"23/10/16","15:20",0.0,24.7,45.7,1003.8,292.8,1.2,3.2,299.8,0.05,12.3,20.2,"15:15:52",1
"23/10/16","15:30",0.0,23.9,48.8,1004.1,307.3,1.1,2.2,348.8,0.04,12.5,20.2,"15:23:12",1
"23/10/16","15:40",0.0,23.5,50.0,1004.3,319.8,1.0,1.8,349.1,0.02,12.5,20.2,"15:37:28",1
"23/10/16","15:50",0.0,23.6,51.3,1004.1,322.5,0.6,1.7,343.8,0.04,13.0,20.0,"15:46:00",1
"23/10/16","16:00",0.0,23.6,55.3,1004.3,300.2,0.6,1.7,352.4,0.03,14.2,20.3,"15:57:36",1
"23/10/16","16:10",0.0,23.2,57.3,1004.3,314.1,0.8,1.9,340.4,0.03,14.3,20.2,"16:01:36",1
"23/10/16","16:20",0.0,23.1,58.8,1004.8,271.9,0.7,2.6,230.3,0.02,14.6,20.2,"16:12:32",1
"23/10/16","16:30",0.0,22.6,56.1,1005.0,235.2,1.3,3.1,238.2,0.02,13.5,20.0,"16:23:12",1
"23/10/16","16:40",0.0,22.9,56.9,1005.0,260.9,1.2,2.5,253.2,0.03,14.0,20.2,"16:36:56",1
"23/10/16","16:50",0.0,22.6,55.4,1005.0,237.0,2.0,3.4,219.4,0.01,13.3,20.0,"16:42:08",1
"23/10/16","17:00",0.0,22.4,56.9,1005.0,275.9,1.2,2.5,249.8,0.00,13.5,20.2,"16:53:36",1
"23/10/16","17:10",0.0,21.9,60.4,1005.2,322.2,1.5,2.4,344.5,0.00,13.9,20.1,"17:09:12",1
"23/10/16","17:20",0.0,21.4,63.0,1005.5,320.5,1.3,2.6,333.6,0.00,14.1,20.1,"17:15:12",1
"23/10/16","17:30",0.0,21.0,63.9,1005.7,322.9,1.3,2.2,337.1,0.00,14.0,20.1,"17:26:56",1
"23/10/16","17:40",0.0,20.7,65.1,1005.5,308.9,1.3,2.2,330.5,0.00,14.0,20.1,"17:35:12",1
"23/10/16","17:50",0.0,20.6,66.4,1005.7,304.5,1.3,2.0,321.0,0.00,14.2,20.0,"17:47:04",1
"23/10/16","18:00",0.0,20.4,67.9,1006.0,319.7,1.6,2.7,333.2,0.00,14.3,20.0,"17:56:40",1
"23/10/16","18:10",0.0,20.2,69.5,1006.0,326.2,1.7,3.3,317.8,0.00,14.5,20.0,"18:01:12",1
"23/10/16","18:20",0.0,20.0,70.5,1006.2,307.1,1.3,2.2,313.3,0.00,14.5,19.9,"18:12:16",1
"23/10/16","18:30",0.0,20.0,71.6,1006.7,322.9,2.0,3.9,332.1,0.00,14.8,19.9,"18:29:36",1
"23/10/16","18:40",0.0,19.8,72.4,1006.7,303.9,1.6,3.3,321.8,0.00,14.7,19.9,"18:32:16",1
"23/10/16","18:50",0.0,19.6,73.1,1007.1,317.6,1.7,2.9,343.7,0.00,14.7,20.0,"18:40:40",1
"23/10/16","19:00",0.0,19.4,74.3,1007.1,323.6,2.2,3.7,321.0,0.00,14.8,19.8,"18:54:08",1
"23/10/16","19:10",0.0,19.2,75.6,1006.9,328.6,1.8,4.0,337.1,0.00,14.8,19.9,"19:08:12",1
"23/10/16","19:20",0.0,18.8,76.7,1007.1,314.4,1.0,2.8,356.7,0.00,14.7,19.8,"19:10:08",1
"23/10/16","19:30",0.0,18.1,78.1,1007.1,292.5,0.6,1.1,315.9,0.00,14.3,19.8,"19:25:36",1
"23/10/16","19:40",0.0,18.0,79.6,1007.6,295.4,1.1,1.9,340.3,0.00,14.5,19.8,"19:31:20",1
"23/10/16","19:50",0.0,18.0,80.3,1007.4,319.9,1.1,1.9,340.1,0.00,14.6,19.7,"19:45:36",1
"23/10/16","20:00",0.0,18.0,80.7,1007.8,334.0,1.6,2.8,318.3,0.00,14.7,19.7,"19:50:02",1
"23/10/16","20:10",0.0,17.7,81.5,1007.6,328.6,2.0,3.3,324.3,0.00,14.5,19.7,"20:02:40",1
"23/10/16","20:20",0.0,17.6,82.1,1007.8,317.0,2.1,4.0,315.4,0.00,14.6,19.6,"20:13:44",1
"23/10/16","20:30",0.0,17.4,82.5,1008.1,324.2,1.8,2.6,327.6,0.00,14.4,19.8,"20:22:40",1
"23/10/16","20:40",0.0,17.2,82.9,1008.1,308.8,1.3,2.7,330.1,0.00,14.3,19.8,"20:31:52",1
"23/10/16","20:50",0.0,16.7,83.3,1008.3,292.6,0.8,1.3,310.0,0.00,13.9,19.5,"20:40:16",1
"23/10/16","21:00",0.0,16.2,83.8,1008.1,290.0,0.7,1.2,280.2,0.00,13.5,19.4,"20:52:48",1
"23/10/16","21:10",0.0,16.1,84.7,1008.3,311.0,0.8,1.8,351.0,0.00,13.6,19.6,"21:08:08",1
"23/10/16","21:20",0.0,16.1,85.7,1008.1,315.3,1.7,2.8,305.2,0.00,13.7,19.6,"21:19:08",1
"23/10/16","21:30",0.0,16.1,86.4,1008.1,288.8,1.2,2.1,335.9,0.00,13.9,19.3,"21:20:18",1
"23/10/16","21:40",0.0,16.1,87.0,1008.1,271.9,1.3,1.9,247.9,0.00,14.0,19.4,"21:33:04",1
"23/10/16","21:50",0.0,16.1,87.3,1007.8,304.4,1.6,2.4,322.9,0.00,14.0,19.2,"21:45:20",1
"23/10/16","22:00",0.0,15.9,87.5,1008.3,306.6,1.6,2.6,311.7,0.00,13.9,19.2,"21:50:08",1
"23/10/16","22:10",0.0,15.4,87.7,1008.1,286.4,1.0,1.3,298.8,0.00,13.4,19.3,"22:01:28",1
"23/10/16","22:20",0.0,15.1,88.3,1008.3,281.1,1.1,1.6,262.0,0.00,13.2,19.2,"22:19:54",1
"23/10/16","22:30",0.0,15.1,88.5,1008.1,301.5,1.3,2.0,312.9,0.00,13.3,19.2,"22:22:00",1
"23/10/16","22:40",0.0,14.9,88.9,1008.1,304.4,1.1,2.2,320.3,0.00,13.1,19.0,"22:33:12",1
"23/10/16","22:50",0.0,14.6,89.3,1008.3,290.2,1.0,1.7,321.7,0.00,12.9,18.9,"22:45:36",1
"23/10/16","23:00",0.0,14.4,89.8,1008.6,284.2,0.6,1.4,313.8,0.00,12.8,19.0,"22:57:36",1
"23/10/16","23:10",0.0,14.4,90.2,1008.3,315.2,1.1,2.0,319.1,0.00,12.9,18.8,"23:08:16",1
"23/10/16","23:20",0.0,14.3,90.7,1008.6,310.6,1.1,2.7,327.2,0.00,12.8,19.0,"23:14:24",1
"23/10/16","23:30",0.0,14.2,91.0,1008.3,305.7,1.2,1.8,320.0,0.00,12.8,18.9,"23:23:28",1
"23/10/16","23:40",0.0,14.1,91.5,1008.3,311.3,1.3,2.0,315.8,0.00,12.8,19.0,"23:30:08",1
"23/10/16","23:50",0.0,14.3,91.8,1008.6,313.4,1.3,1.9,328.9,0.00,13.0,18.9,"23:44:40",1
"23/10/16","24:00",0.0,14.0,92.2,1008.3,279.1,0.7,2.1,309.6,0.00,12.8,18.8,"23:54:16",1
